Other Public Products
Issued by NWS Grand Forks, ND

Home | Current Version | Previous Version | Text Only | Print | Product List | Glossary On
Versions: 1 2 3 4 5 6 7 8 9 10 11 12 13 14 15 16 17 18 19 20 21 22 23 24 25 26 27 28 29 30 31 32 33 34 35 36 37 38 39 40 41 42 43 44 45 46 47 48 49 50
000
FPUS83 KFGF 301831
OPUFGF
PRAIRIE TO PINES WEATHER ROUNDUP
NATIONAL WEATHER SERVICE EASTERN NORTH DAKOTA/GRAND FORKS ND
1200 PM CST FRI JAN 30 2015

 **SATELLITE DATA USED TO AUGMENT SKY COVER AT AUTOMATED STATIONS**
 *****  WEATHER ACROSS EASTERN NORTH DAKOTA  *****

CITY           SKY/WX    TMP DP  RH WIND       PRES   REMARKS
GRAND FORKS    CLOUDY    21  14  74 S25G31    30.20F WCI   4
6HR MIN TEMP:   9; 6HR MAX TEMP:  21;

GRAND FORKS AF CLOUDY    21  13  71 S20       30.19F WCI   6
GRAND CITY NWS   N/A     21 N/A N/A S28         N/A  WCI   3
BUXTON           N/A     23  15  74 SE20        N/A  WCI   8
DEVILS LAKE    SUNNY     28  21  74 SW13      30.11F WCI  18
6HR MIN TEMP:  16; 6HR MAX TEMP:  27;

FARGO          CLOUDY    23  14  68 S20G28    30.26F WCI   8
6HR MIN TEMP:  11; 6HR MAX TEMP:  23;

WAHPETON ARPT  MOCLDY    25  19  80 SE18      30.28F WCI  11
$$

 *****  WEATHER ACROSS CENTRAL AND WESTERN NORTH DAKOTA  *****

CITY           SKY/WX    TMP DP  RH WIND       PRES   REMARKS
JAMESTOWN      SUNNY     32  22  66 SW8       30.16F WCI  25
6HR MIN TEMP:  19; 6HR MAX TEMP:  32;

BISMARCK       SUNNY     34  25  69 SW7       30.18F
6HR MIN TEMP:  16; 6HR MAX TEMP:  34;

MINOT          SUNNY     36  25  64 NW14      30.13S
6HR MIN TEMP:  22; 6HR MAX TEMP:  36;

MINOT AFB      SUNNY     34  31  88 NW17      30.13R WCI  23
6HR MIN TEMP:  17; 6HR MAX TEMP:  34;

GARRISON         N/A     35  27  72 NW14      30.14S
6HR MIN TEMP:  16; 6HR MAX TEMP:  35;

WILLISTON      SUNNY     38  28  67 NW10      30.21R
6HR MIN TEMP:  15; 6HR MAX TEMP:  38;

DICKINSON      SUNNY     41  28  60 W14       30.15S
6HR MIN TEMP:  23; 6HR MAX TEMP:  41;

HETTINGER      SUNNY     43  28  55 W13       30.17F
6HR MIN TEMP:  20; 6HR MAX TEMP:  43;

$$

 *****  OTHER OBSERVATIONS NORTHEAST NORTH DAKOTA  *****

CITY           SKY/WX    TMP DP  RH WIND       PRES   REMARKS
WALHALLA         N/A     18  18 100 SE8       30.17F WCI   7
LANGDON        NOT AVBL
CAVALIER       CLOUDY    18  14  86 S9        30.18F WCI   6
GRAFTON        NOT AVBL
CANDO          FAIR      28  21  74 W13       30.11F WCI  18
FORT TOTTEN      N/A     29  21  73 SW8       29.95S WCI  21
ROLLA          FAIR      25  25 100 W6        30.09F WCI  18
RUGBY          FAIR      28  23  80 W12       30.11F WCI  18
 ***** THE ABOVE OBSERVATIONS ARE NON NWS ARE NOT QUALITY
        CONTROLLED AND MAY MIS-REPORT RAIN FOR SNOW...
$$

 *****  OTHER OBSERVATIONS SOUTHEAST NORTH DAKOTA *****

CITY           SKY/WX    TMP DP  RH WIND       PRES   REMARKS
COOPERSTOWN    NOT AVBL
VALLEY CITY    FLURRIES  30  25  80 S21       30.17F WCI  17
OAKES            N/A     32  27  80 S14G22    30.20F WCI  22
GWINNER        CLEAR     34  28  80 S16       30.22F WCI  23
BUFFALO        NOT AVBL
WYNDMERE         N/A     27  21  80 S14         N/A  WCI  15
 ***** THE ABOVE OBSERVATIONS ARE NON NWS ARE NOT QUALITY
       CONTROLLED AND MAY MIS-REPORT RAIN FOR SNOW...
$$

  *****  WEATHER ACROSS NORTHERN MINNESOTA  *****

CITY           SKY/WX    TMP DP  RH WIND       PRES   REMARKS
FLAG ISLAND    LGT SNOW   7   1  78 S17       30.24F WCI -12
WARROAD        PTSUNNY   12   7  79 S8        30.23F WCI   1
ROSEAU         MOSUNNY   14   9  79 S16       30.23F WCI  -2
HALLOCK        CLOUDY    18  12  79 S20       30.21F WCI   1
THF RVR FALLS  CLOUDY    18  16  93 SE12      30.22F WCI   5
6HR MIN TEMP:   5; 6HR MAX TEMP:  16;

HALSTAD          N/A     22  14  71 S23         N/A  WCI   6
FOSSTON        CLOUDY    16  12  86 S17       30.24F WCI   0
BAUDETTE       LGT SNOW   8   3  80 SE7       30.26F WCI  -3
6HR MIN TEMP:  -2; 6HR MAX TEMP:   8; 6HR PCP: TRACE;

WASKISH        CLOUDY    14   5  67 CALM      30.28F
CROOKSTON      CLOUDY    19  16  86 S24       30.22F WCI   2
$$
  *****  WEATHER ACROSS CENTRAL AND WEST MINNESOTA  *****

CITY           SKY/WX    TMP DP  RH WIND       PRES   REMARKS
BEMIDJI        PTSUNNY   13   7  77 S12       30.26F WCI  -1
PARK RAPIDS    CLOUDY    16   8  71 S14       30.29F WCI   2
6HR MIN TEMP:   5; 6HR MAX TEMP:  17;

WADENA         PTSUNNY   18  10  73 S10       30.30F WCI   6
DETROIT LAKES  MOSUNNY   19  16  86 S16       30.27F WCI   5
MOORHEAD       PTSUNNY   23  19  86 S18G26    30.26F WCI   9
FERGUS FALLS   CLOUDY    19  14  79 S18       30.33F WCI   4
ELBOW LAKE     CLOUDY    20  16  85 S18G24    30.31F WCI   5
MORRIS MN      CLOUDY    21  18  86 SE18      30.33F WCI   6
STAPLES        MOSUNNY   18  10  73 S14       30.32F WCI   4
WHEATON        SUNNY     25  19  80 SE20      30.30F WCI  11
$$
  *****  WEATHER ELSEWHERE ACROSS MINNESOTA  *****

CITY           SKY/WX    TMP DP  RH WIND       PRES   REMARKS
DULUTH         CLOUDY    10   0  63 S8        30.37F WCI  -2
6HR MIN TEMP:  -1; 6HR MAX TEMP:  10;

INTRNTL FALLS  LGT SNOW   5   0  79 SE8       30.32F VSB 1   WCI  -8
6HR MIN TEMP: -10; 6HR MAX TEMP:   4; 6HR PCP:  0.02;

ELY            CLOUDY     7  -2  66 S3        30.35S
CLOQUET        PTSUNNY   10   1  67 S8        30.37F WCI  -1
BRAINERD       CLOUDY    15   7  70 S12       30.37F WCI   2
6HR MIN TEMP:   5; 6HR MAX TEMP:  15;

HIBBING        CLOUDY     9   0  67 SW6       30.36F WCI  -1
6HR MIN TEMP:  -7; 6HR MAX TEMP:   9;

ALEXANDRIA     CLOUDY    16  12  84 S15       30.37F WCI   1
6HR MIN TEMP:   8; 6HR MAX TEMP:  16;

SAINT CLOUD    SUNNY     19   8  62 S12       30.42F WCI   7
6HR MIN TEMP:   9; 6HR MAX TEMP:  19;

MINNEAPOLIS    PTSUNNY   19   9  65 S8        30.48F WCI   9
6HR MIN TEMP:  11; 6HR MAX TEMP:  19;

$$

  *****  WEATHER ACROSS SOUTH DAKOTA  *****

CITY           SKY/WX    TMP DP  RH WIND       PRES   REMARKS
SIOUX FALLS    MOSUNNY   30  23  75 S16       30.35F WCI  19
6HR MIN TEMP:  18; 6HR MAX TEMP:  30;

BROOKINGS      NOT AVBL
WATERTOWN      SUNNY     31  23  72 S17       30.26F WCI  19
6HR MIN TEMP:  17; 6HR MAX TEMP:  31;

HURON          SUNNY     32  24  72 S18G25    30.26F WCI  20
6HR MIN TEMP:  17; 6HR MAX TEMP:  32;

SISSETON         N/A     30  23  75 S20       30.26F WCI  17
ABERDEEN       SUNNY     32  24  72 S16       30.24F WCI  21
6HR MIN TEMP:  16; 6HR MAX TEMP:  32;

MITCHELL       SUNNY     34  26  72 S18       30.29F WCI  23
PIERRE         MOSUNNY   37  26  64 S5        30.20S
6HR MIN TEMP:  20; 6HR MAX TEMP:  37;

MOBRIDGE       SUNNY     31  24  75 S5        30.17F
RAPID CITY     PTSUNNY   45  24  43 N14       30.17F
6HR MIN TEMP:  19; 6HR MAX TEMP:  45;

$$

  *****  SOME WEATHER IN NEARBY STATES *****

CITY           SKY/WX    TMP DP  RH WIND       PRES   REMARKS
GLASGOW MT     SUNNY     29  26  89 W9        30.24S WCI  20
6HR MIN TEMP:  18; 6HR MAX TEMP:  29;

GREAT FALLS MT SUNNY     42  17  36 SW10      30.21F
6HR MIN TEMP:  22; 6HR MAX TEMP:  42;

CHEYENNE WY    PTSUNNY   44  25  47 N12G17    30.16F
6HR MIN TEMP:  27; 6HR MAX TEMP:  44;

SCOTTSBLUFF NE PTSUNNY   38  26  62 W6        30.18F
6HR MIN TEMP:  27; 6HR MAX TEMP:  38;

OMAHA NE       PTSUNNY   29  19  66 S8        30.49F WCI  21
6HR MIN TEMP:  18; 6HR MAX TEMP:  30;

DES MOINES IA  PTSUNNY   28  13  53 SW6       30.53F WCI  22
6HR MIN TEMP:  17; 6HR MAX TEMP:  28;

DAVENPORT IA   SUNNY     25  11  55 CALM      30.54S
6HR MIN TEMP:  12; 6HR MAX TEMP:  25;

CHICAGO IL     MOSUNNY   25   8  48 VRB6      30.51F WCI  18
6HR MIN TEMP:  19; 6HR MAX TEMP:  27;

EAU CLAIRE WI  CLOUDY    13   4  67 S6        30.48F WCI   4
6HR MIN TEMP:   4; 6HR MAX TEMP:  13;

LA CROSSE WI   CLOUDY    19   5  54 CALM      30.54F
6HR MIN TEMP:  10; 6HR MAX TEMP:  20;

$$

  *****  SOME NATIONAL WEATHER *****

CITY           SKY/WX    TMP DP  RH WIND       PRES   REMARKS
LA GUARDIA NY  PTSUNNY   36  23  59 NW21G30   29.82F
6HR MIN TEMP:  32; 6HR MAX TEMP:  37; 6HR PCP:  0.01;




USA.gov is the U.S. government's official web portal to all federal, state and local government web resources and services.